Lapse_Rate
5.6 5.9 6.1 5.8 5.7 5.7 5.8 5.9 6.0 6.0 6.1 6.1 6.1 6.0 6.0 6.0 6.0 6.0 6.0 6.0 6.0 5.9 5.9 6.0 6.1 6.1 6.1 6.1 6.7 6.6 6.1 6.3 5.9 6.2 5.8 5.5 5.7 5.7 6.0 6.2 5.9 6.0 5.7
6.0 6.0 5.8 5.6 5.5 5.6 5.6 5.8 5.9 6.0 6.2 6.2 6.2 6.6 6.7 6.8 6.5 6.3 6.2 6.2 6.2 6.1 6.1 6.0 6.0 6.0 6.1 6.1 6.2 6.6 6.1 6.1 5.9 5.8 6.1 6.0 5.9 6.2 6.0 5.8 5.9 6.0 5.8
6.1 6.0 5.8 5.8 5.8 5.6 5.7 5.5 5.8 5.9 5.9 6.0 6.1 6.1 6.4 6.4 6.6 6.6 6.3 6.1 5.9 6.0 6.0 6.1 6.1 6.1 6.0 6.2 6.2 6.3 6.5 6.2 6.1 6.1 6.0 5.8 5.7 5.9 5.9 5.9 5.5 5.8 6.1
5.8 6.0 6.1 6.0 5.9 5.9 5.5 5.7 5.8 5.8 5.8 6.0 6.2 6.3 6.4 6.8 6.9 7.0 6.7 6.4 6.2 6.1 6.1 6.1 6.1 6.2 6.1 6.2 6.2 6.2 6.2 6.2 6.2 6.3 5.8 6.1 5.7 5.8 6.1 5.9 5.4 5.5 5.6
5.7 5.6 6.0 6.2 5.9 5.4 5.3 5.7 6.0 5.9 5.9 6.1 6.3 6.4 6.3 6.1 6.3 6.0 6.0 5.9 6.1 6.0 5.8 5.9 5.9 6.2 6.1 6.2 6.3 6.2 6.2 6.2 6.1 6.4 6.2 5.8 5.9 5.5 5.7 5.6 5.7 5.5 5.8
5.8 5.9 6.0 6.3 6.0 5.7 5.9 6.0 6.0 6.2 6.2 6.2 6.1 5.9 5.9 5.8 6.0 6.0 5.8 5.8 5.8 5.9 5.9 5.8 6.0 6.0 6.0 6.2 6.3 6.3 6.3 6.5 6.4 6.1 6.5 6.4 6.1 5.8 5.6 5.6 5.6 5.8 5.3
6.1 5.9 5.9 6.3 6.4 6.2 5.9 5.8 5.8 5.9 5.9 5.6 5.3 5.2 5.2 5.3 5.3 5.5 5.6 5.7 5.7 5.8 5.9 5.9 5.7 5.9 6.0 6.0 6.3 6.2 6.2 6.3 6.1 6.4 6.4 6.5 6.2 5.7 5.5 5.6 5.6 5.8 5.6
6.1 6.1 6.0 5.9 6.0 6.0 6.0 5.8 5.9 5.9 5.9 5.7 5.7 5.5 5.3 5.2 5.0 5.1 5.3 5.5 5.8 6.0 6.1 6.2 6.3 6.1 6.2 6.0 6.0 6.3 6.3 6.3 6.4 6.4 6.6 6.5 6.0 5.9 5.5 5.5 5.2 5.9 5.6
6.0 6.2 6.2 6.1 6.2 6.1 5.9 5.9 6.0 6.0 6.0 5.8 5.8 5.8 5.6 5.7 5.6 5.5 5.5 5.7 5.7 5.8 5.9 6.2 6.3 6.2 6.1 6.2 6.2 6.2 6.4 6.4 6.5 6.6 6.6 6.4 6.2 5.9 5.4 5.6 5.4 5.7 5.4
5.9 6.1 5.9 5.9 5.7 5.7 5.7 5.7 5.5 5.5 5.7 5.7 5.7 5.7 5.8 5.6 5.4 5.5 5.6 5.6 5.6 5.5 5.6 5.8 6.1 6.4 6.4 6.2 6.2 6.2 6.3 6.5 6.5 6.8 6.8 7.0 5.9 5.8 5.6 5.5 5.4 5.6 5.4
5.8 6.0 5.8 5.6 5.5 5.4 5.4 5.3 5.4 5.5 5.6 5.6 5.7 5.7 5.7 5.5 5.4 5.7 5.7 5.6 5.7 5.6 5.7 5.8 6.1 6.3 6.5 6.4 6.4 6.2 6.3 6.5 6.7 6.8 6.3 6.9 6.0 5.6 5.4 5.3 5.2 5.5 5.5
5.8 5.5 5.5 5.5 5.5 5.3 5.3 5.4 5.5 5.6 5.6 5.5 5.6 5.6 5.6 5.6 5.7 5.8 5.8 5.7 5.6 5.6 5.7 5.9 6.1 6.3 6.5 6.5 6.6 6.4 6.4 6.7 6.9 6.8 5.8 6.2 6.1 5.5 5.8 5.4 5.7 5.2 5.5
5.5 5.5 5.5 5.4 5.4 5.5 5.5 5.6 5.5 5.4 5.4 5.3 5.3 5.5 5.7 5.9 5.9 5.9 5.8 5.7 5.6 5.6 5.7 5.8 6.0 6.2 6.3 6.6 6.8 6.9 6.8 7.2 6.9 6.3 6.4 6.1 6.1 6.3 6.3 5.8 5.7 5.5 5.6
5.6 5.5 5.5 5.6 5.7 5.8 5.6 5.5 5.5 5.5 5.5 5.5 5.6 5.7 5.8 5.8 5.9 5.9 5.8 5.8 5.7 5.6 5.6 5.7 5.8 6.1 6.4 6.7 7.0 7.1 7.3 7.2 6.9 6.7 6.5 6.8 6.7 6.5 6.5 6.2 6.0 5.6 5.5
5.7 5.7 5.7 5.8 5.8 5.7 5.6 5.6 5.7 5.8 5.8 5.8 5.8 5.7 5.7 5.6 5.6 5.6 5.6 5.7 5.8 5.8 5.7 5.6 5.7 6.1 6.5 6.8 6.9 7.0 7.2 7.1 7.1 7.2 6.5 6.7 6.7 6.7 6.6 6.5 6.1 6.1 6.2
5.8 5.7 5.9 5.6 5.7 5.6 5.7 5.9 5.9 5.9 5.8 5.8 5.6 5.5 5.6 5.6 5.7 5.8 6.0 6.1 6.1 6.1 6.2 6.0 5.9 6.2 6.5 6.8 6.8 6.9 6.9 6.8 6.9 7.0 7.0 6.9 6.9 6.8 6.6 6.6 6.3 6.3 6.1
5.8 5.8 5.6 5.6 5.6 5.5 5.5 5.6 5.7 5.6 5.6 5.6 5.5 5.5 5.6 5.7 6.0 6.2 6.3 6.5 6.6 6.8 6.9 6.7 6.3 6.3 6.7 6.8 6.9 6.8 6.6 6.8 6.8 6.9 6.9 6.8 6.7 6.6 6.4 6.6 6.5 6.4 6.2
5.6 5.7 5.7 5.6 5.4 5.4 5.4 5.6 5.5 5.5 5.5 5.5 5.5 5.6 5.9 6.2 6.4 6.6 6.7 6.9 6.8 6.8 6.9 6.8 6.4 6.4 6.7 6.8 7.0 6.6 6.6 6.7 6.8 6.8 6.8 6.6 6.6 6.7 6.6 7.0 6.5 6.4 6.2
5.5 5.5 5.4 5.3 5.1 5.0 5.1 5.4 5.5 5.4 5.4 5.5 5.7 5.9 6.2 6.6 6.8 6.9 6.8 6.7 6.7 6.8 6.9 6.7 6.4 6.6 6.8 6.8 6.8 6.7 6.7 6.6 6.8 6.5 6.5 6.5 6.6 6.6 6.6 6.4 6.5 6.3 6.1
5.3 5.4 5.4 5.3 5.1 5.0 5.1 5.3 5.4 5.3 5.5 5.7 5.8 6.2 6.3 6.5 6.6 6.6 6.5 6.5 6.5 6.8 6.7 6.4 6.3 6.5 6.7 6.6 6.6 6.7 6.6 6.6 6.6 6.5 6.6 6.4 6.4 6.5 6.5 6.3 6.2 6.2 6.2
5.1 5.1 5.2 5.1 4.9 4.9 5.1 5.3 5.3 5.4 5.6 5.8 6.1 6.1 6.1 6.1 6.0 6.2 6.1 6.3 6.5 6.6 6.2 6.2 6.2 6.4 6.3 6.3 6.4 6.5 6.6 6.6 6.5 6.5 6.5 6.4 6.4 6.5 6.5 6.4 6.3 6.0 6.1
5.1 5.2 5.2 5.2 5.0 5.0 5.1 5.3 5.4 5.6 5.8 6.1 6.0 6.2 6.4 6.1 6.0 6.1 6.1 6.4 6.4 6.2 6.0 6.1 6.3 6.1 6.1 6.1 6.3 6.5 6.5 6.5 6.5 6.6 6.5 6.3 6.3 6.4 6.4 6.3 6.2 6.1 6.1
4.9 5.0 5.0 5.0 4.9 5.0 5.0 5.4 5.6 5.8 6.1 6.1 6.2 6.4 6.3 6.2 6.1 6.1 6.3 6.3 6.1 6.0 6.1 6.2 6.0 5.9 5.9 5.9 6.1 6.3 6.4 6.5 6.5 6.4 6.3 6.3 6.5 6.4 6.4 6.3 6.1 6.1 6.0
4.9 5.0 4.9 5.0 5.0 5.1 5.2 5.4 5.6 6.0 6.2 6.1 6.2 6.3 6.2 6.2 6.0 6.1 6.2 6.2 6.0 6.2 6.2 5.9 5.8 5.7 5.7 5.8 6.0 6.0 6.1 6.2 6.4 6.4 6.4 6.4 6.4 6.3 6.4 6.3 6.3 6.1 5.8
4.8 4.8 4.8 4.9 4.9 5.1 5.3 5.4 5.7 6.2 6.2 6.2 6.1 6.1 5.9 5.9 5.9 6.0 6.0 6.0 6.1 6.1 5.8 5.7 5.6 5.6 5.7 5.8 5.8 5.8 5.9 6.1 6.3 6.4 6.3 6.2 6.3 6.3 6.2 6.1 6.1 5.9 5.8
4.7 4.7 4.6 4.7 4.9 5.2 5.2 5.5 5.9 6.2 6.2 6.3 6.3 6.3 6.0 6.0 6.1 6.1 5.9 5.8 6.0 5.8 5.6 5.6 5.6 5.6 5.7 5.8 5.9 5.8 5.8 5.9 6.1 6.2 6.3 6.4 6.3 6.2 6.1 6.1 6.0 5.9 5.8
Wind_Speed
5 7 8 6 6 6 8 7 7 7 6 6 6 3 5 3 4 11 16 15 15 14 12 8 7 7 6 5 6 7 4 2 3 2 1 2 3 3 3 5 6 7 12
7 7 7 7 7 6 6 7 7 7 6 5 3 2 3 2 2 8 11 14 16 15 12 8 6 6 6 6 6 6 2 2 3 2 1 2 1 1 3 3 6 8 11
6 5 6 6 6 6 6 8 7 7 6 7 4 4 2 3 3 7 7 11 15 15 13 12 8 7 4 5 5 5 5 5 2 4 3 2 3 0 0 2 2 7 6
5 4 5 4 5 5 5 5 5 5 7 6 6 5 4 5 3 5 6 7 12 11 13 12 11 7 7 7 7 6 6 5 4 2 4 1 2 2 2 1 1 4 6
4 4 6 6 5 6 5 5 6 6 7 8 7 5 6 4 4 5 8 6 6 9 9 12 10 7 7 8 7 6 5 6 6 4 2 2 1 2 3 2 3 2 1
3 3 4 3 4 4 5 5 6 5 7 7 7 7 9 10 8 8 7 7 6 6 8 9 11 8 7 8 8 7 7 7 7 5 4 4 3 3 3 2 1 1 1
3 4 4 5 5 5 6 6 7 6 6 8 6 7 7 8 8 8 7 9 7 6 6 8 8 9 11 8 9 8 7 7 6 7 6 5 6 3 2 3 2 2 1
3 6 6 6 6 6 6 7 8 8 7 8 8 7 6 6 6 7 7 7 7 7 8 8 9 10 9 10 11 7 8 8 7 7 7 5 6 5 4 4 4 2 0
7 6 7 6 7 6 7 7 8 7 8 9 8 10 7 9 9 10 8 6 9 8 10 8 10 11 10 10 10 9 10 9 9 9 9 8 7 6 6 4 4 4 4
4 4 6 6 6 7 7 8 7 7 9 9 8 9 9 9 10 9 10 9 10 10 10 10 10 12 10 10 10 9 11 11 9 7 9 9 7 8 6 6 5 4 4
5 5 5 6 6 6 7 8 10 9 11 11 11 11 11 11 10 10 9 10 11 12 11 10 12 13 13 11 11 11 14 14 11 10 10 11 9 7 7 6 5 5 3
5 5 6 7 8 7 8 10 11 11 12 12 12 13 12 12 11 11 11 11 12 12 11 11 12 12 13 11 12 12 14 12 12 11 11 11 7 9 8 7 8 6 5
7 7 7 9 10 11 12 12 11 12 12 12 13 13 13 12 12 12 12 12 12 12 11 11 13 13 14 12 12 13 14 15 13 12 11 10 11 10 8 8 8 6 5
6 8 9 10 11 11 12 12 13 12 12 13 13 13 13 13 12 12 12 12 12 12 12 12 13 14 15 14 13 13 14 15 12 13 12 12 11 12 11 9 9 7 7
10 10 11 12 13 13 13 13 13 13 13 13 14 14 14 14 13 13 12 13 12 12 13 14 14 15 15 12 11 12 13 14 10 11 9 10 13 14 13 8 9 9 7
12 12 12 13 14 14 14 15 14 14 13 14 15 15 14 14 14 14 13 13 13 13 13 14 14 15 10 20 22 19 12 12 15 11 10 9 14 14 17 15 16 14 10
12 13 14 13 14 14 14 15 15 14 14 13 14 14 14 14 13 13 14 13 14 13 13 15 14 14 14 20 23 23 11 11 9 7 8 8 6 12 9 13 13 14 14
12 13 13 13 14 14 14 15 14 14 14 14 14 14 14 14 14 14 13 13 12 13 13 13 13 13 12 21 22 21 12 10 7 8 10 9 9 10 12 11 9 8 6
11 10 12 13 13 13 14 14 15 15 14 14 14 15 15 15 15 15 14 13 12 13 13 13 13 13 13 20 21 17 9 4 4 5 6 9 10 20 23 14 13 10 8
11 13 15 15 14 14 14 14 15 14 15 15 16 16 16 15 14 14 14 13 12 13 11 13 12 15 13 19 21 17 3 4 3 5 6 16 14 24 24 14 13 13 9
13 13 14 13 13 13 14 15 15 15 16 16 16 18 18 16 14 13 12 12 13 12 12 12 10 9 10 5 5 2 3 4 4 6 6 7 22 21 22 19 11 14 13
14 14 13 15 14 14 12 14 15 15 16 16 16 17 18 14 11 12 12 12 11 11 10 9 7 4 6 8 4 1 5 9 7 8 6 11 22 22 23 16 26 26 18
12 12 12 15 15 13 12 15 16 16 16 16 16 17 17 16 12 11 11 10 10 8 8 5 5 4 3 3 3 3 10 14 8 7 16 23 24 24 21 27 26 20 9
12 11 13 15 16 14 14 14 15 15 15 16 16 15 14 15 12 8 8 8 8 7 5 5 4 3 2 2 1 3 6 16 14 20 13 14 18 19 19 14 11 8 8
12 12 12 13 16 15 16 15 15 15 14 15 15 14 11 12 12 9 7 8 9 7 5 4 3 2 1 1 5 5 4 8 13 14 9 8 9 9 9 8 9 8 7
12 12 14 14 15 15 16 15 14 14 14 15 12 12 11 10 9 8 9 14 13 14 10 10 5 2 3 9 12 12 14 20 22 9 9 8 8 9 9 9 8 7 10
Wind_Direction
65 62 56 47 44 36 37 25 29 17 21 14 8 8 4 344 347 358 347 345 346 344 340 333 326 325 300 251 252 242 216 189 151 118 311 221 230 275 284 220 210 198 185
56 57 54 43 37 28 19 20 20 19 23 15 3 351 318 316 308 335 340 346 337 337 336 329 323 311 306 285 250 243 220 165 185 145 49 274 253 181 240 305 211 208 184
75 53 52 38 26 25 12 20 11 8 16 6 3 0 330 335 342 351 344 345 337 335 335 331 329 320 301 288 271 247 222 233 184 175 182 191 235 353 187 216 313 190 195
60 43 43 33 13 17 19 10 13 14 15 1 12 15 355 342 330 323 321 319 322 333 336 332 333 331 325 310 286 263 243 209 199 179 216 250 232 191 290 233 209 314 189
62 37 29 10 2 9 359 354 2 12 6 6 11 3 347 307 303 315 323 310 314 324 333 335 328 333 325 315 305 273 244 231 228 199 162 128 234 162 221 180 204 247 22
57 47 38 328 328 346 3 356 2 356 2 360 354 355 345 332 330 329 326 324 319 319 323 323 326 316 315 313 312 293 258 235 223 201 190 181 177 185 177 176 265 206 150
28 32 342 335 338 357 360 360 2 346 347 349 342 338 324 317 310 310 310 312 311 312 307 316 313 316 310 301 296 301 274 245 234 230 224 214 216 154 165 152 167 162 165
13 3 342 1 7 5 5 360 352 337 340 341 330 316 301 317 300 290 293 298 297 297 303 307 313 304 297 299 296 287 283 251 229 218 220 223 218 192 178 175 142 92 216
11 354 347 32 12 355 346 343 336 329 330 324 314 323 315 319 305 298 292 299 297 296 300 308 304 298 292 288 284 283 279 264 235 217 214 215 223 212 200 186 167 157 176
10 5 14 9 347 333 331 332 326 311 316 314 314 315 312 310 301 299 297 300 298 293 289 293 293 302 289 291 284 277 277 263 251 226 214 214 211 207 197 192 187 185 168
354 14 354 339 317 316 325 325 328 319 325 322 321 317 316 311 302 300 296 298 300 293 285 291 295 302 299 292 287 279 272 257 251 239 215 220 203 205 191 180 175 170 153
5 2 338 320 322 324 328 328 322 321 323 319 317 313 312 308 304 306 302 302 294 291 286 293 294 299 299 291 291 283 284 246 246 236 222 217 195 200 193 183 181 180 164
355 341 335 333 329 328 328 322 318 318 317 316 311 309 309 306 305 304 302 299 294 291 292 295 290 295 298 287 281 279 280 256 239 229 217 212 195 195 189 184 179 173 155
338 328 330 324 320 321 319 316 316 316 315 310 308 305 303 303 300 298 296 296 297 296 296 289 285 293 297 289 283 282 280 267 230 225 216 214 205 202 187 181 176 163 154
331 323 321 322 320 318 317 316 314 315 313 311 309 306 305 303 301 300 299 298 296 295 292 287 285 296 294 288 285 284 284 279 235 214 204 201 191 190 192 168 171 161 157
323 322 320 319 317 317 315 313 313 311 313 309 306 305 306 306 304 303 303 300 296 294 291 288 282 296 288 286 287 283 280 286 235 211 196 186 180 180 177 175 169 161 156
321 323 319 315 313 313 311 310 311 310 310 306 303 302 302 301 300 300 299 296 294 294 289 289 290 291 285 283 286 281 276 282 218 194 183 174 177 168 170 159 154 161 165
321 317 313 312 312 312 312 311 313 311 310 308 306 305 304 300 299 297 295 294 292 293 291 287 289 290 284 283 283 283 277 261 206 189 171 161 152 142 128 113 103 92 80
312 309 308 310 311 311 311 313 312 312 310 309 308 307 306 303 301 298 297 293 293 293 290 288 293 287 290 282 279 277 268 220 168 145 144 137 142 138 130 121 110 97 92
314 315 313 316 315 316 317 318 313 312 310 311 310 307 304 300 295 294 295 293 289 289 291 289 291 292 289 285 274 261 176 139 123 106 122 141 142 142 134 127 126 115 113
311 313 314 312 311 314 319 315 313 310 309 310 308 309 307 301 292 290 291 292 293 291 288 294 291 293 301 331 6 143 148 154 129 126 120 133 137 137 132 127 128 127 123
319 319 318 315 316 319 316 312 308 308 311 309 308 306 309 306 295 292 291 292 292 289 292 289 289 281 309 329 329 225 173 150 134 125 121 129 131 128 122 115 125 121 114
313 315 313 314 315 317 318 310 307 312 311 310 307 308 309 305 297 290 289 297 293 286 291 288 289 292 302 304 287 233 162 137 115 118 123 127 122 120 115 124 122 118 114
316 317 321 316 314 318 316 309 310 312 311 310 310 307 305 303 299 293 290 289 287 288 292 292 284 284 286 324 340 116 131 120 112 115 114 112 107 109 112 108 105 102 105
313 321 317 313 312 316 315 313 314 316 313 311 309 306 302 300 299 288 289 291 286 274 284 290 281 264 244 184 119 110 120 125 121 114 108 107 107 105 103 98 100 99 104
323 318 316 315 314 316 311 314 315 317 312 309 311 307 307 303 298 297 303 305 303 312 292 283 248 257 176 147 129 127 128 123 121 113 116 110 109 111 114 113 108 102 110